Time,TemperatureF,DewpointF,PressureIn,WindDirection,WindDirectionDegrees,WindSpeedMPH,WindSpeedGustMPH,Humidity,HourlyPrecipIn,Conditions,Clouds,dailyrainin,SoftwareType,DateUTC
2013-09-26 00:00:00,53.2,49.4,29.99,ESE,102,1.0,4.0,87,0.00,,---,0.00,VWS V14.01,2013-09-26 04:00:00,
2013-09-26 00:01:00,53.1,49.3,29.99,ESE,102,3.0,3.0,87,0.00,,---,0.00,VWS V14.01,2013-09-26 04:01:00,
2013-09-26 00:06:00,52.9,49.1,29.99,ESE,103,3.0,4.0,87,0.00,,---,0.00,VWS V14.01,2013-09-26 04:06:00,
2013-09-26 00:12:00,52.8,49.3,29.99,ESE,103,4.0,4.0,88,0.00,,---,0.00,VWS V14.01,2013-09-26 04:12:00,
2013-09-26 00:17:00,52.6,48.8,29.99,ESE,104,5.0,5.0,87,0.00,,---,0.00,VWS V14.01,2013-09-26 04:17:00,
2013-09-26 00:22:00,52.5,49.0,29.99,ESE,105,6.0,6.0,88,0.00,,---,0.00,VWS V14.01,2013-09-26 04:22:00,
2013-09-26 00:27:00,52.3,48.9,29.99,ESE,107,6.0,6.0,88,0.00,,---,0.00,VWS V14.01,2013-09-26 04:27:00,
2013-09-26 00:32:00,52.2,48.8,29.99,ESE,107,4.0,5.0,88,0.00,,---,0.00,VWS V14.01,2013-09-26 04:32:00,
2013-09-26 00:37:00,52.1,49.0,30.00,ESE,107,0.0,1.0,89,0.00,,---,0.00,VWS V14.01,2013-09-26 04:37:00,
2013-09-26 00:42:00,52.0,48.9,30.00,ESE,107,0.0,3.0,89,0.00,,---,0.00,VWS V14.01,2013-09-26 04:42:00,
2013-09-26 00:47:00,51.9,48.8,30.00,ESE,107,3.0,5.0,89,0.00,,---,0.00,VWS V14.01,2013-09-26 04:47:00,
2013-09-26 00:52:00,51.7,48.6,30.00,ESE,107,0.0,0.0,89,0.00,,---,0.00,VWS V14.01,2013-09-26 04:52:00,
2013-09-26 00:57:00,51.6,48.5,30.00,ESE,107,1.0,1.0,89,0.00,,---,0.00,VWS V14.01,2013-09-26 04:57:00,
2013-09-26 01:02:00,51.5,48.4,30.00,ESE,107,0.0,0.0,89,0.00,,---,0.00,VWS V14.01,2013-09-26 05:02:00,
2013-09-26 01:07:00,51.4,48.6,30.00,ESE,107,0.0,1.0,90,0.00,,---,0.00,VWS V14.01,2013-09-26 05:07:00,
2013-09-26 01:12:00,51.2,48.1,30.00,ESE,107,0.0,3.0,89,0.00,,---,0.00,VWS V14.01,2013-09-26 05:12:00,
2013-09-26 01:17:00,51.0,48.2,30.00,ESE,107,0.0,2.0,90,0.00,,---,0.00,VWS V14.01,2013-09-26 05:17:00,
2013-09-26 01:22:00,50.7,47.9,30.00,ESE,107,0.0,0.0,90,0.00,,---,0.00,VWS V14.01,2013-09-26 05:22:00,
2013-09-26 01:27:00,50.5,47.7,30.00,ESE,107,0.0,1.0,90,0.00,,---,0.00,VWS V14.01,2013-09-26 05:27:00,
2013-09-26 01:32:00,50.3,47.5,30.00,ESE,107,0.0,0.0,90,0.00,,---,0.00,VWS V14.01,2013-09-26 05:32:00,
2013-09-26 01:37:00,50.0,47.2,30.00,ESE,107,0.0,0.0,90,0.00,,---,0.00,VWS V14.01,2013-09-26 05:37:00,
2013-09-26 01:42:00,49.8,47.0,30.00,ESE,107,0.0,0.0,90,0.00,,---,0.00,VWS V14.01,2013-09-26 05:42:00,
2013-09-26 01:47:00,49.6,46.8,30.00,ESE,107,0.0,0.0,90,0.00,,---,0.00,VWS V14.01,2013-09-26 05:47:00,
2013-09-26 01:52:00,49.4,46.6,30.00,ESE,107,1.0,2.0,90,0.00,,---,0.00,VWS V14.01,2013-09-26 05:52:00,
2013-09-26 01:57:00,49.2,46.7,30.00,ESE,107,1.0,3.0,91,0.00,,---,0.00,VWS V14.01,2013-09-26 05:57:00,
2013-09-26 02:02:00,49.0,46.5,30.01,ESE,107,0.0,0.0,91,0.00,,---,0.00,VWS V14.01,2013-09-26 06:02:00,
2013-09-26 02:07:00,48.8,46.3,30.00,ESE,107,0.0,0.0,91,0.00,,---,0.00,VWS V14.01,2013-09-26 06:07:00,
2013-09-26 02:12:00,48.6,46.1,30.01,ESE,107,1.0,1.0,91,0.00,,---,0.00,VWS V14.01,2013-09-26 06:12:00,
2013-09-26 02:17:00,48.5,46.0,30.01,ESE,107,1.0,3.0,91,0.00,,---,0.00,VWS V14.01,2013-09-26 06:17:00,
2013-09-26 02:22:00,48.3,46.1,30.01,ESE,107,0.0,0.0,92,0.00,,---,0.00,VWS V14.01,2013-09-26 06:22:00,
2013-09-26 02:27:00,48.2,46.0,30.01,ESE,107,0.0,0.0,92,0.00,,---,0.00,VWS V14.01,2013-09-26 06:27:00,
2013-09-26 02:33:00,47.9,45.4,30.01,ESE,107,2.0,2.0,91,0.00,,---,0.00,VWS V14.01,2013-09-26 06:33:00,
2013-09-26 02:38:00,47.7,45.5,30.01,ESE,107,0.0,0.0,92,0.00,,---,0.00,VWS V14.01,2013-09-26 06:38:00,
2013-09-26 02:43:00,47.5,45.3,30.01,ESE,107,1.0,3.0,92,0.00,,---,0.00,VWS V14.01,2013-09-26 06:43:00,
2013-09-26 02:48:00,47.3,45.1,30.01,ESE,107,0.0,2.0,92,0.00,,---,0.00,VWS V14.01,2013-09-26 06:48:00,
2013-09-26 02:53:00,47.1,44.9,30.01,ESE,107,0.0,0.0,92,0.00,,---,0.00,VWS V14.01,2013-09-26 06:53:00,
2013-09-26 02:58:00,47.0,44.8,30.01,ESE,107,0.0,3.0,92,0.00,,---,0.00,VWS V14.01,2013-09-26 06:58:00,
2013-09-26 03:03:00,46.9,44.7,30.02,ESE,107,0.0,3.0,92,0.00,,---,0.00,VWS V14.01,2013-09-26 07:03:00,
2013-09-26 03:08:00,46.9,44.7,30.02,ESE,107,0.0,1.0,92,0.00,,---,0.00,VWS V14.01,2013-09-26 07:08:00,
2013-09-26 03:13:00,47.0,44.8,30.02,SSE,162,4.0,4.0,92,0.00,,---,0.00,VWS V14.01,2013-09-26 07:13:00,
2013-09-26 03:18:00,47.2,45.0,30.02,SSE,157,1.0,4.0,92,0.00,,---,0.00,VWS V14.01,2013-09-26 07:18:00,
2013-09-26 03:23:00,47.3,45.4,30.02,SSE,155,2.0,3.0,93,0.00,,---,0.00,VWS V14.01,2013-09-26 07:23:00,
2013-09-26 03:28:00,47.5,45.6,30.02,SSE,155,2.0,2.0,93,0.00,,---,0.00,VWS V14.01,2013-09-26 07:28:00,
2013-09-26 03:33:00,47.7,45.8,30.02,SSE,156,1.0,4.0,93,0.00,,---,0.00,VWS V14.01,2013-09-26 07:33:00,
2013-09-26 03:38:00,47.7,45.8,30.02,SSE,157,1.0,3.0,93,0.00,,---,0.00,VWS V14.01,2013-09-26 07:38:00,
2013-09-26 03:43:00,47.6,45.7,30.02,SSE,157,1.0,4.0,93,0.00,,---,0.00,VWS V14.01,2013-09-26 07:43:00,
2013-09-26 03:48:00,47.4,45.5,30.02,SSE,157,2.0,3.0,93,0.00,,---,0.00,VWS V14.01,2013-09-26 07:48:00,
2013-09-26 03:53:00,47.2,45.0,30.02,SSE,159,3.0,3.0,92,0.00,,---,0.00,VWS V14.01,2013-09-26 07:53:00,
2013-09-26 03:58:00,47.0,44.8,30.03,SSE,159,1.0,1.0,92,0.00,,---,0.00,VWS V14.01,2013-09-26 07:58:00,
2013-09-26 04:03:00,46.8,44.9,30.02,SSE,159,3.0,3.0,93,0.00,,---,0.00,VWS V14.01,2013-09-26 08:03:00,
2013-09-26 04:08:00,46.6,44.7,30.02,SSE,160,2.0,3.0,93,0.00,,---,0.00,VWS V14.01,2013-09-26 08:08:00,
2013-09-26 04:13:00,46.4,44.2,30.03,SSE,160,2.0,3.0,92,0.00,,---,0.00,VWS V14.01,2013-09-26 08:13:00,
2013-09-26 04:18:00,46.2,44.3,30.03,SSE,160,1.0,1.0,93,0.00,,---,0.00,VWS V14.01,2013-09-26 08:18:00,
2013-09-26 04:23:00,46.1,44.2,30.03,SSE,160,2.0,2.0,93,0.00,,---,0.00,VWS V14.01,2013-09-26 08:23:00,
2013-09-26 04:28:00,46.0,44.1,30.03,SSE,160,2.0,3.0,93,0.00,,---,0.00,VWS V14.01,2013-09-26 08:28:00,
2013-09-26 04:33:00,45.9,44.0,30.03,SSE,160,2.0,4.0,93,0.00,,---,0.00,VWS V14.01,2013-09-26 08:33:00,
2013-09-26 04:38:00,45.8,43.9,30.03,SSE,161,1.0,2.0,93,0.00,,---,0.00,VWS V14.01,2013-09-26 08:38:00,
2013-09-26 04:43:00,45.8,43.9,30.04,SSE,161,0.0,1.0,93,0.00,,---,0.00,VWS V14.01,2013-09-26 08:43:00,
2013-09-26 04:48:00,45.7,43.8,30.04,SSE,161,0.0,0.0,93,0.00,,---,0.00,VWS V14.01,2013-09-26 08:48:00,
2013-09-26 04:53:00,45.6,43.7,30.04,SSE,161,0.0,0.0,93,0.00,,---,0.00,VWS V14.01,2013-09-26 08:53:00,
2013-09-26 04:58:00,45.5,43.6,30.04,SSE,161,0.0,0.0,93,0.00,,---,0.00,VWS V14.01,2013-09-26 08:58:00,
2013-09-26 05:03:00,45.5,43.6,30.05,SSE,161,0.0,0.0,93,0.00,,---,0.00,VWS V14.01,2013-09-26 09:03:00,
2013-09-26 05:08:00,45.6,43.7,30.05,SSE,161,0.0,0.0,93,0.00,,---,0.00,VWS V14.01,2013-09-26 09:08:00,
2013-09-26 05:13:00,45.6,43.7,30.05,SSE,161,0.0,0.0,93,0.00,,---,0.00,VWS V14.01,2013-09-26 09:13:00,
2013-09-26 05:18:00,45.6,43.7,30.05,SSE,161,0.0,2.0,93,0.00,,---,0.00,VWS V14.01,2013-09-26 09:18:00,
2013-09-26 05:23:00,45.5,43.6,30.06,SSE,161,0.0,0.0,93,0.00,,---,0.00,VWS V14.01,2013-09-26 09:23:00,
2013-09-26 05:28:00,45.5,43.6,30.06,SSE,161,0.0,0.0,93,0.00,,---,0.00,VWS V14.01,2013-09-26 09:28:00,
2013-09-26 05:33:00,45.5,43.6,30.06,SSE,161,0.0,1.0,93,0.00,,---,0.00,VWS V14.01,2013-09-26 09:33:00,
2013-09-26 05:38:00,45.6,43.7,30.06,SSE,161,1.0,1.0,93,0.00,,---,0.00,VWS V14.01,2013-09-26 09:38:00,
2013-09-26 05:43:00,45.7,43.8,30.06,SSE,161,0.0,0.0,93,0.00,,---,0.00,VWS V14.01,2013-09-26 09:43:00,
2013-09-26 05:48:00,45.7,43.8,30.06,SSE,161,0.0,2.0,93,0.00,,---,0.00,VWS V14.01,2013-09-26 09:48:00,
2013-09-26 05:53:00,45.7,44.1,30.06,SSE,161,0.0,0.0,94,0.00,,---,0.00,VWS V14.01,2013-09-26 09:53:00,
2013-09-26 05:58:00,45.6,43.7,30.06,SSE,161,1.0,1.0,93,0.00,,---,0.00,VWS V14.01,2013-09-26 09:58:00,
2013-09-26 06:03:00,45.4,43.5,30.06,ESE,119,4.0,4.0,93,0.00,,---,0.00,VWS V14.01,2013-09-26 10:03:00,
2013-09-26 06:08:00,45.0,43.1,30.06,ESE,113,0.0,1.0,93,0.00,,---,0.00,VWS V14.01,2013-09-26 10:08:00,
2013-09-26 06:13:00,44.8,42.9,30.06,ESE,113,0.0,2.0,93,0.00,,---,0.00,VWS V14.01,2013-09-26 10:13:00,
2013-09-26 06:18:00,44.8,42.9,30.07,ESE,113,0.0,2.0,93,0.00,,---,0.00,VWS V14.01,2013-09-26 10:18:00,
2013-09-26 06:23:00,44.9,43.0,30.06,ESE,113,0.0,0.0,93,0.00,,---,0.00,VWS V14.01,2013-09-26 10:23:00,
2013-09-26 06:28:00,44.8,42.9,30.06,ESE,113,4.0,4.0,93,0.00,,---,0.00,VWS V14.01,2013-09-26 10:28:00,
2013-09-26 06:33:00,44.6,42.7,30.07,ESE,113,2.0,4.0,93,0.00,,---,0.00,VWS V14.01,2013-09-26 10:33:00,
2013-09-26 06:38:00,44.2,42.3,30.07,ESE,113,2.0,5.0,93,0.00,,---,0.00,VWS V14.01,2013-09-26 10:38:00,
2013-09-26 06:43:00,44.0,42.1,30.07,ESE,113,1.0,3.0,93,0.00,,---,0.00,VWS V14.01,2013-09-26 10:43:00,
2013-09-26 06:48:00,43.8,41.9,30.07,ESE,111,3.0,5.0,93,0.00,,---,0.00,VWS V14.01,2013-09-26 10:48:00,
2013-09-26 06:53:00,43.6,41.7,30.07,ESE,111,1.0,5.0,93,0.00,,---,0.00,VWS V14.01,2013-09-26 10:53:00,
2013-09-26 06:58:00,43.4,41.8,30.07,ESE,111,2.0,4.0,94,0.00,,---,0.00,VWS V14.01,2013-09-26 10:58:00,
2013-09-26 07:03:00,43.5,41.9,30.07,ESE,111,0.0,3.0,94,0.00,,---,0.00,VWS V14.01,2013-09-26 11:03:00,
2013-09-26 07:08:00,43.6,42.0,30.08,ESE,111,0.0,0.0,94,0.00,,---,0.00,VWS V14.01,2013-09-26 11:08:00,
2013-09-26 07:13:00,43.6,42.0,30.08,ESE,111,0.0,1.0,94,0.00,,---,0.00,VWS V14.01,2013-09-26 11:13:00,
2013-09-26 07:18:00,43.4,41.8,30.08,ESE,111,0.0,1.0,94,0.00,,---,0.00,VWS V14.01,2013-09-26 11:18:00,
2013-09-26 07:23:00,43.3,41.7,30.08,ESE,111,0.0,0.0,94,0.00,,---,0.00,VWS V14.01,2013-09-26 11:23:00,
2013-09-26 07:28:00,43.3,41.7,30.08,ESE,111,1.0,2.0,94,0.00,,---,0.00,VWS V14.01,2013-09-26 11:28:00,
2013-09-26 07:33:00,43.3,41.7,30.08,ESE,111,0.0,0.0,94,0.00,,---,0.00,VWS V14.01,2013-09-26 11:33:00,
2013-09-26 07:38:00,43.3,41.7,30.08,ESE,111,0.0,2.0,94,0.00,,---,0.00,VWS V14.01,2013-09-26 11:38:00,
2013-09-26 07:43:00,43.4,41.8,30.08,ESE,111,0.0,0.0,94,0.00,,---,0.00,VWS V14.01,2013-09-26 11:43:00,
2013-09-26 07:48:00,43.7,42.1,30.08,ESE,111,0.0,3.0,94,0.00,,---,0.00,VWS V14.01,2013-09-26 11:48:00,
2013-09-26 07:54:00,44.0,42.4,30.08,ESE,111,0.0,0.0,94,0.00,,---,0.00,VWS V14.01,2013-09-26 11:54:00,
2013-09-26 07:58:00,44.4,42.8,30.08,ESE,111,0.0,0.0,94,0.00,,---,0.00,VWS V14.01,2013-09-26 11:58:00,
2013-09-26 08:03:00,45.0,43.4,30.08,ESE,111,0.0,0.0,94,0.00,,---,0.00,VWS V14.01,2013-09-26 12:03:00,
2013-09-26 08:09:00,45.5,43.9,30.08,ESE,111,0.0,0.0,94,0.00,,---,0.00,VWS V14.01,2013-09-26 12:09:00,
2013-09-26 08:14:00,45.6,44.0,30.09,ESE,111,0.0,0.0,94,0.00,,---,0.00,VWS V14.01,2013-09-26 12:14:00,
2013-09-26 08:19:00,45.6,44.0,30.09,ESE,111,0.0,0.0,94,0.00,,---,0.00,VWS V14.01,2013-09-26 12:19:00,
2013-09-26 08:24:00,45.6,44.0,30.08,ESE,111,0.0,0.0,94,0.00,,---,0.00,VWS V14.01,2013-09-26 12:24:00,
2013-09-26 08:29:00,45.8,44.2,30.08,ESE,111,0.0,0.0,94,0.00,,---,0.00,VWS V14.01,2013-09-26 12:29:00,
2013-09-26 08:34:00,46.3,45.0,30.08,ESE,111,0.0,0.0,95,0.00,,---,0.00,VWS V14.01,2013-09-26 12:34:00,
2013-09-26 08:39:00,46.6,45.0,30.08,ESE,111,0.0,1.0,94,0.00,,---,0.00,VWS V14.01,2013-09-26 12:39:00,
2013-09-26 08:44:00,46.9,45.5,30.09,ESE,111,1.0,3.0,95,0.00,,---,0.00,VWS V14.01,2013-09-26 12:44:00,
2013-09-26 08:49:00,47.1,45.5,30.09,ESE,111,2.0,3.0,94,0.00,,---,0.00,VWS V14.01,2013-09-26 12:49:00,
2013-09-26 08:54:00,47.3,45.7,30.09,ESE,111,0.0,0.0,94,0.00,,---,0.00,VWS V14.01,2013-09-26 12:54:00,
2013-09-26 08:59:00,47.7,46.3,30.09,ESE,111,0.0,1.0,95,0.00,,---,0.00,VWS V14.01,2013-09-26 12:59:00,
2013-09-26 09:04:00,48.0,46.6,30.10,ESE,111,0.0,0.0,95,0.00,,---,0.00,VWS V14.01,2013-09-26 13:04:00,
2013-09-26 09:09:00,48.3,46.9,30.10,ESE,111,0.0,0.0,95,0.00,,---,0.00,VWS V14.01,2013-09-26 13:09:00,
2013-09-26 09:14:00,48.5,46.9,30.10,ESE,111,0.0,0.0,94,0.00,,---,0.00,VWS V14.01,2013-09-26 13:14:00,
2013-09-26 09:19:00,48.8,47.4,30.10,ESE,111,0.0,1.0,95,0.00,,---,0.00,VWS V14.01,2013-09-26 13:19:00,
2013-09-26 09:24:00,49.4,48.0,30.10,East,96,3.0,4.0,95,0.00,,---,0.00,VWS V14.01,2013-09-26 13:24:00,
2013-09-26 09:29:00,49.7,48.3,30.10,ESE,107,2.0,4.0,95,0.00,,---,0.00,VWS V14.01,2013-09-26 13:29:00,
2013-09-26 09:34:00,49.9,48.5,30.09,ESE,114,2.0,4.0,95,0.00,,---,0.00,VWS V14.01,2013-09-26 13:34:00,
2013-09-26 09:39:00,50.1,48.7,30.10,ESE,114,0.0,2.0,95,0.00,,---,0.00,VWS V14.01,2013-09-26 13:39:00,
2013-09-26 09:44:00,50.5,49.1,30.09,ESE,112,3.0,4.0,95,0.00,,---,0.00,VWS V14.01,2013-09-26 13:44:00,
2013-09-26 09:49:00,51.0,49.6,30.09,ESE,110,2.0,4.0,95,0.00,,---,0.00,VWS V14.01,2013-09-26 13:49:00,
2013-09-26 09:54:00,51.3,49.9,30.10,ESE,110,2.0,3.0,95,0.00,,---,0.00,VWS V14.01,2013-09-26 13:54:00,
2013-09-26 09:59:00,51.6,50.2,30.09,ESE,110,0.0,3.0,95,0.00,,---,0.00,VWS V14.01,2013-09-26 13:59:00,
2013-09-26 10:04:00,51.9,50.5,30.09,ESE,110,1.0,4.0,95,0.00,,---,0.00,VWS V14.01,2013-09-26 14:04:00,
2013-09-26 10:09:00,52.3,50.6,30.09,ESE,110,1.0,4.0,94,0.00,,---,0.00,VWS V14.01,2013-09-26 14:09:00,
2013-09-26 10:14:00,52.8,51.1,30.10,SSE,151,0.0,2.0,94,0.00,,---,0.00,VWS V14.01,2013-09-26 14:14:00,
2013-09-26 10:19:00,53.2,51.5,30.10,SSE,164,1.0,2.0,94,0.00,,---,0.00,VWS V14.01,2013-09-26 14:19:00,
2013-09-26 10:24:00,53.7,51.7,30.09,SSE,153,0.0,3.0,93,0.00,,---,0.00,VWS V14.01,2013-09-26 14:24:00,
2013-09-26 10:29:00,54.2,51.9,30.10,SSE,163,1.0,4.0,92,0.00,,---,0.00,VWS V14.01,2013-09-26 14:29:00,
2013-09-26 10:34:00,54.9,52.3,30.09,ESE,106,0.0,4.0,91,0.00,,---,0.00,VWS V14.01,2013-09-26 14:34:00,
2013-09-26 10:39:00,55.6,52.4,30.09,ESE,111,1.0,1.0,89,0.00,,---,0.00,VWS V14.01,2013-09-26 14:39:00,
2013-09-26 10:44:00,56.4,52.9,30.09,SE,132,2.0,2.0,88,0.00,,---,0.00,VWS V14.01,2013-09-26 14:44:00,
2013-09-26 10:49:00,57.1,53.3,30.09,ESE,120,1.0,3.0,87,0.00,,---,0.00,VWS V14.01,2013-09-26 14:49:00,
2013-09-26 10:54:00,57.8,53.3,30.09,ESE,112,1.0,3.0,85,0.00,,---,0.00,VWS V14.01,2013-09-26 14:54:00,
2013-09-26 10:59:00,58.5,53.0,30.09,ESE,107,0.0,3.0,82,0.00,,---,0.00,VWS V14.01,2013-09-26 14:59:00,
2013-09-26 11:04:00,59.0,53.2,30.09,ESE,106,2.0,2.0,81,0.00,,---,0.00,VWS V14.01,2013-09-26 15:04:00,
2013-09-26 11:09:00,59.6,53.4,30.09,ESE,110,1.0,4.0,80,0.00,,---,0.00,VWS V14.01,2013-09-26 15:09:00,
2013-09-26 11:14:00,60.1,53.2,30.09,ESE,103,3.0,5.0,78,0.00,,---,0.00,VWS V14.01,2013-09-26 15:14:00,
2013-09-26 11:19:00,60.5,52.9,30.09,ESE,104,3.0,4.0,76,0.00,,---,0.00,VWS V14.01,2013-09-26 15:19:00,
2013-09-26 11:24:00,60.9,52.9,30.09,East,97,4.0,4.0,75,0.00,,---,0.00,VWS V14.01,2013-09-26 15:24:00,
2013-09-26 11:29:00,61.4,53.8,30.09,East,96,0.0,3.0,76,0.00,,---,0.00,VWS V14.01,2013-09-26 15:29:00,
2013-09-26 11:34:00,62.0,53.3,30.08,East,96,4.0,4.0,73,0.00,,---,0.00,VWS V14.01,2013-09-26 15:34:00,
2013-09-26 11:39:00,62.3,52.8,30.08,ENE,78,1.0,4.0,71,0.00,,---,0.00,VWS V14.01,2013-09-26 15:39:00,
2013-09-26 11:44:00,62.7,52.8,30.08,ENE,71,5.0,5.0,70,0.00,,---,0.00,VWS V14.01,2013-09-26 15:44:00,
2013-09-26 11:49:00,63.0,52.3,30.08,East,84,3.0,4.0,68,0.00,,---,0.00,VWS V14.01,2013-09-26 15:49:00,
2013-09-26 11:54:00,63.1,51.6,30.08,East,88,5.0,5.0,66,0.00,,---,0.00,VWS V14.01,2013-09-26 15:54:00,
2013-09-26 11:59:00,63.2,50.8,30.08,ENE,65,1.0,3.0,64,0.00,,---,0.00,VWS V14.01,2013-09-26 15:59:00,
2013-09-26 12:04:00,63.2,51.7,30.08,East,96,2.0,5.0,66,0.00,,---,0.00,VWS V14.01,2013-09-26 16:04:00,
2013-09-26 12:09:00,63.4,49.7,30.09,East,98,0.0,2.0,61,0.00,,---,0.00,VWS V14.01,2013-09-26 16:09:00,
2013-09-26 12:14:00,63.6,52.0,30.08,NE,40,3.0,4.0,66,0.00,,---,0.00,VWS V14.01,2013-09-26 16:14:00,
2013-09-26 12:19:00,63.9,52.7,30.08,ENE,68,2.0,6.0,67,0.00,,---,0.00,VWS V14.01,2013-09-26 16:19:00,
2013-09-26 12:24:00,64.1,52.5,30.08,ENE,68,1.0,5.0,66,0.00,,---,0.00,VWS V14.01,2013-09-26 16:24:00,
2013-09-26 12:29:00,64.2,51.8,30.08,ENE,65,4.0,4.0,64,0.00,,---,0.00,VWS V14.01,2013-09-26 16:29:00,
2013-09-26 12:34:00,64.5,52.5,30.08,East,99,0.0,5.0,65,0.00,,---,0.00,VWS V14.01,2013-09-26 16:34:00,
2013-09-26 12:39:00,64.9,52.5,30.08,East,93,3.0,4.0,64,0.00,,---,0.00,VWS V14.01,2013-09-26 16:39:00,
2013-09-26 12:44:00,65.2,53.2,30.08,NE,55,3.0,4.0,65,0.00,,---,0.00,VWS V14.01,2013-09-26 16:44:00,
2013-09-26 12:49:00,65.6,52.7,30.08,ENE,59,4.0,5.0,63,0.00,,---,0.00,VWS V14.01,2013-09-26 16:49:00,
2013-09-26 12:54:00,65.6,52.2,30.08,NE,44,3.0,5.0,62,0.00,,---,0.00,VWS V14.01,2013-09-26 16:54:00,
2013-09-26 12:59:00,65.6,53.1,30.08,NE,54,4.0,5.0,64,0.00,,---,0.00,VWS V14.01,2013-09-26 16:59:00,
2013-09-26 13:04:00,65.6,51.8,30.08,NE,35,4.0,6.0,61,0.00,,---,0.00,VWS V14.01,2013-09-26 17:04:00,
2013-09-26 13:09:00,65.6,50.9,30.08,ENE,59,3.0,7.0,59,0.00,,---,0.00,VWS V14.01,2013-09-26 17:09:00,
2013-09-26 13:15:00,66.0,49.9,30.08,ENE,67,4.0,5.0,56,0.00,,---,0.00,VWS V14.01,2013-09-26 17:15:00,
2013-09-26 13:20:00,66.3,49.2,30.08,East,85,1.0,5.0,54,0.00,,---,0.00,VWS V14.01,2013-09-26 17:20:00,
2013-09-26 13:25:00,66.6,50.9,30.08,NNE,14,5.0,6.0,57,0.00,,---,0.00,VWS V14.01,2013-09-26 17:25:00,
2013-09-26 13:30:00,66.9,50.2,30.08,NE,38,4.0,6.0,55,0.00,,---,0.00,VWS V14.01,2013-09-26 17:30:00,
2013-09-26 13:35:00,67.0,50.8,30.08,ENE,74,5.0,5.0,56,0.00,,---,0.00,VWS V14.01,2013-09-26 17:35:00,
2013-09-26 13:40:00,66.9,51.7,30.08,ENE,67,5.0,5.0,58,0.00,,---,0.00,VWS V14.01,2013-09-26 17:40:00,
2013-09-26 13:45:00,66.9,48.7,30.08,NE,49,2.0,5.0,52,0.00,,---,0.00,VWS V14.01,2013-09-26 17:45:00,
2013-09-26 13:50:00,67.0,48.8,30.07,NE,51,3.0,4.0,52,0.00,,---,0.00,VWS V14.01,2013-09-26 17:50:00,
2013-09-26 13:55:00,67.0,47.8,30.07,NNE,18,4.0,5.0,50,0.00,,---,0.00,VWS V14.01,2013-09-26 17:55:00,
2013-09-26 14:00:00,67.4,48.1,30.07,NE,52,3.0,5.0,50,0.00,,---,0.00,VWS V14.01,2013-09-26 18:00:00,
2013-09-26 14:05:00,67.5,47.7,30.08,NNE,28,0.0,4.0,49,0.00,,---,0.00,VWS V14.01,2013-09-26 18:05:00,
2013-09-26 14:10:00,67.6,48.3,30.07,NE,55,2.0,7.0,50,0.00,,---,0.00,VWS V14.01,2013-09-26 18:10:00,
2013-09-26 14:15:00,67.8,46.9,30.07,ENE,65,4.0,5.0,47,0.00,,---,0.00,VWS V14.01,2013-09-26 18:15:00,
2013-09-26 14:20:00,67.9,47.5,30.07,NNE,19,0.0,6.0,48,0.00,,---,0.00,VWS V14.01,2013-09-26 18:20:00,
2013-09-26 14:25:00,67.9,47.0,30.07,NE,37,0.0,4.0,47,0.00,,---,0.00,VWS V14.01,2013-09-26 18:25:00,
2013-09-26 14:30:00,68.1,47.1,30.07,NE,42,1.0,6.0,47,0.00,,---,0.00,VWS V14.01,2013-09-26 18:30:00,
2013-09-26 14:35:00,68.0,47.0,30.07,ENE,59,2.0,5.0,47,0.00,,---,0.00,VWS V14.01,2013-09-26 18:35:00,
2013-09-26 14:40:00,68.1,47.1,30.07,NNE,30,2.0,5.0,47,0.00,,---,0.00,VWS V14.01,2013-09-26 18:40:00,
2013-09-26 14:45:00,68.4,47.4,30.06,NE,45,6.0,6.0,47,0.00,,---,0.00,VWS V14.01,2013-09-26 18:45:00,
2013-09-26 14:50:00,68.4,45.7,30.06,ENE,63,0.0,6.0,44,0.00,,---,0.00,VWS V14.01,2013-09-26 18:50:00,
2013-09-26 14:55:00,68.5,46.9,30.06,ENE,71,4.0,6.0,46,0.00,,---,0.00,VWS V14.01,2013-09-26 18:55:00,
2013-09-26 15:00:00,68.7,46.5,30.06,NNE,33,4.0,6.0,45,0.00,,---,0.00,VWS V14.01,2013-09-26 19:00:00,
2013-09-26 15:05:00,68.4,52.1,30.06,North,5,0.0,7.0,56,0.00,,---,0.00,VWS V14.01,2013-09-26 19:05:00,
2013-09-26 15:10:00,67.8,53.4,30.07,NW,310,1.0,6.0,60,0.00,,---,0.00,VWS V14.01,2013-09-26 19:10:00,
2013-09-26 15:15:00,67.7,51.9,30.07,NNE,17,3.0,8.0,57,0.00,,---,0.00,VWS V14.01,2013-09-26 19:15:00,
2013-09-26 15:20:00,67.5,52.7,30.07,NNE,12,3.0,6.0,59,0.00,,---,0.00,VWS V14.01,2013-09-26 19:20:00,
2013-09-26 15:25:00,67.3,53.0,30.07,NNE,19,4.0,7.0,60,0.00,,---,0.00,VWS V14.01,2013-09-26 19:25:00,
2013-09-26 15:30:00,66.8,53.4,30.07,West,266,3.0,7.0,62,0.00,,---,0.00,VWS V14.01,2013-09-26 19:30:00,
2013-09-26 15:35:00,66.7,54.2,30.07,WSW,252,0.0,7.0,64,0.00,,---,0.00,VWS V14.01,2013-09-26 19:35:00,
2013-09-26 15:40:00,66.5,53.5,30.08,North,355,2.0,5.0,63,0.00,,---,0.00,VWS V14.01,2013-09-26 19:40:00,
2013-09-26 15:45:00,66.2,54.1,30.08,NNW,328,1.0,1.0,65,0.00,,---,0.00,VWS V14.01,2013-09-26 19:45:00,
2013-09-26 15:50:00,66.0,53.9,30.08,NNE,15,3.0,4.0,65,0.00,,---,0.00,VWS V14.01,2013-09-26 19:50:00,
2013-09-26 15:55:00,65.9,54.7,30.08,NW,315,0.0,0.0,67,0.00,,---,0.00,VWS V14.01,2013-09-26 19:55:00,
2013-09-26 16:00:00,65.7,54.9,30.08,NNE,15,2.0,3.0,68,0.00,,---,0.00,VWS V14.01,2013-09-26 20:00:00,
2013-09-26 16:05:00,65.2,54.4,30.08,NNW,333,3.0,5.0,68,0.00,,---,0.00,VWS V14.01,2013-09-26 20:05:00,
2013-09-26 16:11:00,65.0,54.6,30.08,NNW,345,1.0,2.0,69,0.00,,---,0.00,VWS V14.01,2013-09-26 20:11:00,
2013-09-26 16:16:00,64.9,54.1,30.08,NW,316,1.0,3.0,68,0.00,,---,0.00,VWS V14.01,2013-09-26 20:16:00,
2013-09-26 16:21:00,65.0,53.8,30.08,North,350,3.0,3.0,67,0.00,,---,0.00,VWS V14.01,2013-09-26 20:21:00,
2013-09-26 16:26:00,65.0,53.8,30.08,NE,42,1.0,5.0,67,0.00,,---,0.00,VWS V14.01,2013-09-26 20:26:00,
2013-09-26 16:31:00,65.1,54.3,30.08,NW,305,2.0,6.0,68,0.00,,---,0.00,VWS V14.01,2013-09-26 20:31:00,
2013-09-26 16:36:00,65.2,54.0,30.08,North,11,3.0,4.0,67,0.00,,---,0.00,VWS V14.01,2013-09-26 20:36:00,
2013-09-26 16:41:00,65.1,53.5,30.08,North,355,1.0,3.0,66,0.00,,---,0.00,VWS V14.01,2013-09-26 20:41:00,
2013-09-26 16:46:00,65.0,53.0,30.08,NNE,13,1.0,1.0,65,0.00,,---,0.00,VWS V14.01,2013-09-26 20:46:00,
2013-09-26 16:51:00,65.0,53.0,30.08,NW,319,2.0,3.0,65,0.00,,---,0.00,VWS V14.01,2013-09-26 20:51:00,
2013-09-26 16:56:00,65.2,54.4,30.08,SW,233,4.0,4.0,68,0.00,,---,0.00,VWS V14.01,2013-09-26 20:56:00,
2013-09-26 17:01:00,65.4,54.2,30.08,NNE,14,5.0,5.0,67,0.00,,---,0.00,VWS V14.01,2013-09-26 21:01:00,
2013-09-26 17:06:00,64.7,54.3,30.08,North,11,3.0,4.0,69,0.00,,---,0.00,VWS V14.01,2013-09-26 21:06:00,
2013-09-26 17:11:00,64.4,54.4,30.08,NNE,13,2.0,2.0,70,0.00,,---,0.00,VWS V14.01,2013-09-26 21:11:00,
2013-09-26 17:16:00,64.2,53.8,30.08,NNE,18,5.0,7.0,69,0.00,,---,0.00,VWS V14.01,2013-09-26 21:16:00,
2013-09-26 17:21:00,64.0,53.6,30.08,NNE,15,3.0,3.0,69,0.00,,---,0.00,VWS V14.01,2013-09-26 21:21:00,
2013-09-26 17:26:00,63.8,52.7,30.08,NNE,24,4.0,7.0,67,0.00,,---,0.00,VWS V14.01,2013-09-26 21:26:00,
2013-09-26 17:31:00,63.7,52.5,30.08,North,360,2.0,3.0,67,0.00,,---,0.00,VWS V14.01,2013-09-26 21:31:00,
2013-09-26 17:36:00,63.6,52.5,30.08,North,5,1.0,4.0,67,0.00,,---,0.00,VWS V14.01,2013-09-26 21:36:00,
2013-09-26 17:41:00,63.6,53.3,30.08,North,9,3.0,3.0,69,0.00,,---,0.00,VWS V14.01,2013-09-26 21:41:00,
2013-09-26 17:46:00,63.6,53.7,30.08,North,5,0.0,1.0,70,0.00,,---,0.00,VWS V14.01,2013-09-26 21:46:00,
2013-09-26 17:51:00,63.4,54.2,30.08,NW,317,0.0,5.0,72,0.00,,---,0.00,VWS V14.01,2013-09-26 21:51:00,
2013-09-26 17:56:00,63.2,53.7,30.08,North,355,1.0,2.0,71,0.00,,---,0.00,VWS V14.01,2013-09-26 21:56:00,
2013-09-26 18:01:00,63.1,53.9,30.08,North,355,1.0,3.0,72,0.00,,---,0.00,VWS V14.01,2013-09-26 22:01:00,
2013-09-26 18:06:00,62.9,53.8,30.09,North,360,0.0,0.0,72,0.00,,---,0.00,VWS V14.01,2013-09-26 22:06:00,
2013-09-26 18:11:00,62.7,53.5,30.09,North,5,4.0,4.0,72,0.00,,---,0.00,VWS V14.01,2013-09-26 22:11:00,
2013-09-26 18:16:00,62.6,53.1,30.08,North,5,4.0,4.0,71,0.00,,---,0.00,VWS V14.01,2013-09-26 22:16:00,
2013-09-26 18:21:00,62.5,53.0,30.08,North,9,0.0,4.0,71,0.00,,---,0.00,VWS V14.01,2013-09-26 22:21:00,
2013-09-26 18:26:00,62.5,53.0,30.09,NNW,333,0.0,2.0,71,0.00,,---,0.00,VWS V14.01,2013-09-26 22:26:00,
2013-09-26 18:31:00,62.5,52.6,30.09,NNE,13,0.0,2.0,70,0.00,,---,0.00,VWS V14.01,2013-09-26 22:31:00,
2013-09-26 18:36:00,62.5,53.0,30.09,NNW,327,0.0,1.0,71,0.00,,---,0.00,VWS V14.01,2013-09-26 22:36:00,
2013-09-26 18:41:00,62.8,53.3,30.09,North,10,0.0,4.0,71,0.00,,---,0.00,VWS V14.01,2013-09-26 22:41:00,
2013-09-26 18:46:00,62.7,53.5,30.09,NW,305,0.0,3.0,72,0.00,,---,0.00,VWS V14.01,2013-09-26 22:46:00,
2013-09-26 18:51:00,62.3,53.9,30.09,North,355,0.0,2.0,74,0.00,,---,0.00,VWS V14.01,2013-09-26 22:51:00,
2013-09-26 18:56:00,61.7,53.7,30.09,North,355,0.0,1.0,75,0.00,,---,0.00,VWS V14.01,2013-09-26 22:56:00,
2013-09-26 19:01:00,61.4,53.8,30.09,North,11,0.0,2.0,76,0.00,,---,0.00,VWS V14.01,2013-09-26 23:01:00,
2013-09-26 19:07:00,61.0,53.8,30.09,North,11,0.0,1.0,77,0.00,,---,0.00,VWS V14.01,2013-09-26 23:07:00,
2013-09-26 19:12:00,60.8,53.2,30.09,North,11,0.0,0.0,76,0.00,,---,0.00,VWS V14.01,2013-09-26 23:12:00,
2013-09-26 19:17:00,61.0,53.4,30.09,NNW,344,0.0,0.0,76,0.00,,---,0.00,VWS V14.01,2013-09-26 23:17:00,
2013-09-26 19:22:00,61.3,53.0,30.09,NNW,344,0.0,0.0,74,0.00,,---,0.00,VWS V14.01,2013-09-26 23:22:00,
2013-09-26 19:27:00,61.5,52.8,30.09,NNW,344,0.0,0.0,73,0.00,,---,0.00,VWS V14.01,2013-09-26 23:27:00,
2013-09-26 19:32:00,61.3,52.6,30.09,NNW,344,0.0,0.0,73,0.00,,---,0.00,VWS V14.01,2013-09-26 23:32:00,
2013-09-26 19:37:00,60.9,51.8,30.08,NNW,344,0.0,0.0,72,0.00,,---,0.00,VWS V14.01,2013-09-26 23:37:00,
2013-09-26 19:42:00,60.6,51.2,30.09,NNW,344,0.0,0.0,71,0.00,,---,0.00,VWS V14.01,2013-09-26 23:42:00,
2013-09-26 19:47:00,60.3,50.9,30.09,NNW,344,0.0,0.0,71,0.00,,---,0.00,VWS V14.01,2013-09-26 23:47:00,
2013-09-26 19:52:00,59.9,50.1,30.09,NNW,344,0.0,0.0,70,0.00,,---,0.00,VWS V14.01,2013-09-26 23:52:00,
2013-09-26 19:57:00,59.7,49.5,30.09,NNW,344,0.0,0.0,69,0.00,,---,0.00,VWS V14.01,2013-09-26 23:57:00,
2013-09-26 20:02:00,59.6,49.8,30.08,NNW,344,0.0,0.0,70,0.00,,---,0.00,VWS V14.01,2013-09-27 00:02:00,
2013-09-26 20:10:00,59.4,49.6,30.08,NNW,344,0.0,0.0,70,0.00,,---,0.00,VWS V14.01,2013-09-27 00:10:00,
2013-09-26 20:15:00,59.0,50.0,30.09,NNW,344,0.0,0.0,72,0.00,,---,0.00,VWS V14.01,2013-09-27 00:15:00,
2013-09-26 20:20:00,59.0,50.0,30.09,NNW,344,0.0,0.0,72,0.00,,---,0.00,VWS V14.01,2013-09-27 00:20:00,
2013-09-26 20:25:00,59.0,50.0,30.09,NNW,344,0.0,0.0,72,0.00,,---,0.00,VWS V14.01,2013-09-27 00:25:00,
2013-09-26 20:30:00,59.0,50.0,30.09,NNW,344,0.0,0.0,72,0.00,,---,0.00,VWS V14.01,2013-09-27 00:30:00,
2013-09-26 20:35:00,59.0,50.0,30.09,NNW,344,0.0,0.0,72,0.00,,---,0.00,VWS V14.01,2013-09-27 00:35:00,
2013-09-26 20:40:00,59.0,50.0,30.09,NNW,344,0.0,0.0,72,0.00,,---,0.00,VWS V14.01,2013-09-27 00:40:00,
2013-09-26 20:45:00,59.0,50.4,30.09,NNW,344,0.0,0.0,73,0.00,,---,0.00,VWS V14.01,2013-09-27 00:45:00,
2013-09-26 20:50:00,58.6,50.0,30.09,NNW,344,0.0,0.0,73,0.00,,---,0.00,VWS V14.01,2013-09-27 00:50:00,
2013-09-26 20:55:00,58.2,50.0,30.09,NNW,344,0.0,0.0,74,0.00,,---,0.00,VWS V14.01,2013-09-27 00:55:00,
2013-09-26 21:00:00,58.0,50.1,30.09,NNW,344,0.0,0.0,75,0.00,,---,0.00,VWS V14.01,2013-09-27 01:00:00,
2013-09-26 21:05:00,57.9,50.4,30.08,NNW,344,0.0,0.0,76,0.00,,---,0.00,VWS V14.01,2013-09-27 01:05:00,
2013-09-26 21:10:00,57.7,50.5,30.08,NNW,344,0.0,1.0,77,0.00,,---,0.00,VWS V14.01,2013-09-27 01:10:00,
2013-09-26 21:15:00,57.5,50.7,30.08,NNW,344,0.0,0.0,78,0.00,,---,0.00,VWS V14.01,2013-09-27 01:15:00,
2013-09-26 21:20:00,57.3,50.5,30.09,NNW,344,0.0,0.0,78,0.00,,---,0.00,VWS V14.01,2013-09-27 01:20:00,
2013-09-26 21:25:00,57.2,50.4,30.08,NNW,344,0.0,0.0,78,0.00,,---,0.00,VWS V14.01,2013-09-27 01:25:00,
2013-09-26 21:30:00,57.1,50.7,30.09,NNW,344,0.0,0.0,79,0.00,,---,0.00,VWS V14.01,2013-09-27 01:30:00,
2013-09-26 21:35:00,57.1,50.7,30.09,NNW,344,0.0,0.0,79,0.00,,---,0.00,VWS V14.01,2013-09-27 01:35:00,
2013-09-26 21:40:00,56.9,50.8,30.09,NNW,344,0.0,0.0,80,0.00,,---,0.00,VWS V14.01,2013-09-27 01:40:00,
2013-09-26 21:45:00,56.8,50.4,30.09,NNW,344,0.0,0.0,79,0.00,,---,0.00,VWS V14.01,2013-09-27 01:45:00,
2013-09-26 21:50:00,56.7,50.3,30.09,NNW,344,0.0,0.0,79,0.00,,---,0.00,VWS V14.01,2013-09-27 01:50:00,
2013-09-26 21:55:00,56.6,50.2,30.09,NNW,344,0.0,0.0,79,0.00,,---,0.00,VWS V14.01,2013-09-27 01:55:00,
2013-09-26 22:00:00,56.4,50.0,30.09,NNW,344,0.0,0.0,79,0.00,,---,0.00,VWS V14.01,2013-09-27 02:00:00,
2013-09-26 22:05:00,56.1,49.7,30.09,NNW,344,0.0,0.0,79,0.00,,---,0.00,VWS V14.01,2013-09-27 02:05:00,
2013-09-26 22:10:00,55.9,49.8,30.09,NNW,344,0.0,0.0,80,0.00,,---,0.00,VWS V14.01,2013-09-27 02:10:00,
2013-09-26 22:15:00,55.7,49.6,30.09,NNW,344,0.0,0.0,80,0.00,,---,0.00,VWS V14.01,2013-09-27 02:15:00,
2013-09-26 22:20:00,55.7,50.0,30.09,NNW,344,0.0,0.0,81,0.00,,---,0.00,VWS V14.01,2013-09-27 02:20:00,
2013-09-26 22:25:00,55.6,49.9,30.09,NNW,344,0.0,0.0,81,0.00,,---,0.00,VWS V14.01,2013-09-27 02:25:00,
2013-09-26 22:30:00,55.4,49.7,30.09,NNW,344,0.0,0.0,81,0.00,,---,0.00,VWS V14.01,2013-09-27 02:30:00,
2013-09-26 22:35:00,55.2,49.5,30.09,NNW,344,0.0,0.0,81,0.00,,---,0.00,VWS V14.01,2013-09-27 02:35:00,
2013-09-26 22:40:00,54.8,49.4,30.09,NNW,344,0.0,0.0,82,0.00,,---,0.00,VWS V14.01,2013-09-27 02:40:00,
2013-09-26 22:45:00,54.5,49.1,30.09,NNW,344,0.0,0.0,82,0.00,,---,0.00,VWS V14.01,2013-09-27 02:45:00,
2013-09-26 22:50:00,54.2,49.2,30.09,NNW,344,0.0,0.0,83,0.00,,---,0.00,VWS V14.01,2013-09-27 02:50:00,
2013-09-26 22:55:00,53.9,49.2,30.09,NNE,28,2.0,2.0,84,0.00,,---,0.00,VWS V14.01,2013-09-27 02:55:00,
2013-09-26 23:00:00,53.5,49.1,30.09,ESE,109,0.0,0.0,85,0.00,,---,0.00,VWS V14.01,2013-09-27 03:00:00,
2013-09-26 23:05:00,53.3,49.5,30.09,ESE,109,0.0,0.0,87,0.00,,---,0.00,VWS V14.01,2013-09-27 03:05:00,
2013-09-26 23:10:00,53.3,49.5,30.09,ESE,109,0.0,1.0,87,0.00,,---,0.00,VWS V14.01,2013-09-27 03:10:00,
2013-09-26 23:15:00,53.1,49.7,30.09,ESE,109,0.0,0.0,88,0.00,,---,0.00,VWS V14.01,2013-09-27 03:15:00,
2013-09-26 23:20:00,52.9,49.5,30.09,ESE,109,0.0,0.0,88,0.00,,---,0.00,VWS V14.01,2013-09-27 03:20:00,
2013-09-26 23:25:00,52.7,49.5,30.09,ESE,109,0.0,2.0,89,0.00,,---,0.00,VWS V14.01,2013-09-27 03:25:00,
2013-09-26 23:30:00,52.4,49.3,30.09,ESE,109,0.0,0.0,89,0.00,,---,0.00,VWS V14.01,2013-09-27 03:30:00,
2013-09-26 23:35:00,52.2,49.1,30.09,ESE,109,0.0,0.0,89,0.00,,---,0.00,VWS V14.01,2013-09-27 03:35:00,
2013-09-26 23:41:00,51.9,49.1,30.10,ESE,109,0.0,0.0,90,0.00,,---,0.00,VWS V14.01,2013-09-27 03:41:00,
2013-09-26 23:45:00,51.8,49.0,30.09,ESE,109,0.0,0.0,90,0.00,,---,0.00,VWS V14.01,2013-09-27 03:45:00,
2013-09-26 23:50:00,51.9,49.4,30.10,ESE,109,0.0,0.0,91,0.00,,---,0.00,VWS V14.01,2013-09-27 03:50:00,
2013-09-26 23:55:00,51.8,49.3,30.10,ESE,109,2.0,2.0,91,0.00,,---,0.00,VWS V14.01,2013-09-27 03:55:00,